Meath Environmental Platform

Observations for Trim Market St

Time AQI Temp °C Hum % Pres Pa CO μg/m³ H₂S μg/m³ NO μg/m³ NO₂ μg/m³ O₃ μg/m³ SO₂ μg/m³ PM1 μg/m³ PM2.5 μg/m³ PM10 μg/m³
Tuesday 25 August 2026
22:56 2 16.8 84 2,147,483,647 0.31 0 1.17 18.39 33.4 0 7.13 8.95 14.09
22:55 2 16.8 84 2,147,483,647 0.31 0 1.31 22.42 34.38 0 6.41 7.55 12.45
22:54 2 16.8 84 2,147,483,647 0.31 0 1.22 21.76 32.16 0 6.41 7.55 11.9
22:52 2 16.8 84 2,147,483,647 0.32 0 1.52 19.71 33.21 0 7.84 8.49 14.09
22:51 2 16.8 84 2,147,483,647 0.32 0 1.34 21.97 32.9 0 7.84 9.89 14.64
22:50 2 16.8 84 2,147,483,647 0.33 0 1.35 25.29 29.14 0 6.41 8.49 12.45
22:47 2 16.8 83 2,147,483,647 0.32 0 1.25 20.82 30.75 0 4.99 8.03 13
22:45 2 16.8 83 2,147,483,647 0.32 0 1.29 19.39 29.19 0 7.13 7.56 11.36
22:43 2 16.9 83 2,147,483,647 0.33 0 1.29 27.11 35.4 0 8.55 9.43 14.65
22:35 2 16.9 83 2,147,483,647 0.35 0 1.58 24.66 26.43 0 7.84 8.5 14.65
22:32 2 16.9 83 2,147,483,647 0.35 0 1.58 20.91 30.25 0 9.26 9.91 14.66
22:31 2 16.9 83 2,147,483,647 0.35 0 1.58 27.56 32.15 0 7.84 9.44 14.11
22:30 2 16.9 83 2,147,483,647 0.36 0 1.46 26.09 30.05 0 9.98 12.24 17.4
22:29 2 16.9 83 2,147,483,647 0.37 0 1.47 24.14 25.73 0 7.84 8.51 13.02
22:28 2 16.9 83 2,147,483,647 0.33 0 1.46 22.23 31.43 0 7.13 8.04 12.47
22:27 2 16.9 83 2,147,483,647 0.34 0 1.54 26.1 31.44 0 7.84 10.38 15.76
22:26 2 16.9 83 2,147,483,647 0.35 0 1.48 28.28 28.15 0 6.41 8.97 14.11
22:25 2 16.9 83 2,147,483,647 0.34 0 1.47 29.55 27.59 0 7.13 8.51 13.02
22:24 2 16.9 83 2,147,483,647 0.33 0 1.53 22.69 29.74 0 5.7 6.64 13.57
22:23 2 16.9 83 2,147,483,647 0.34 0 1.42 24.86 25.87 0 6.41 8.98 13.02